This is the latest recevied weather packets stored in our database for station/object VR2OT-10. If no packets are shown the sender has not sent any weather packets the latest 10 day(s).
| Time | Temp. | Humidity | Pressure | Rain* | Wind** | Luminosity | Snow |
|---|---|---|---|---|---|---|---|
| 1787931633 | 29.44° C | 85% | 1001.7 hPa | - | 4.92 m/s, 270° | - | - |
| 1787929831 | 29.44° C | 85% | 1002.1 hPa | - | 4.47 m/s, 270° | - | - |
| 1787928933 | 29.44° C | 85% | 1002.1 hPa | - | 3.13 m/s, 270° | - | - |
| 1787928034 | 29.44° C | 84% | 1002.1 hPa | - | 3.58 m/s, 270° | - | - |
| 1787927132 | 29.44° C | 82% | 1001.8 hPa | - | 2.24 m/s, 270° | - | - |
| 1787926233 | 29.44° C | 82% | 1001.7 hPa | - | 2.68 m/s, 270° | - | - |
| 1787925333 | 29.44° C | 80% | 1001.7 hPa | - | 3.13 m/s, 270° | - | - |
| 1787924432 | 29.44° C | 79% | 1001.7 hPa | - | 3.13 m/s, 270° | - | - |
| 1787923533 | 29.44° C | 76% | 1001.6 hPa | - | 1.79 m/s, 270° | - | - |
| 1787922633 | 30° C | 73% | 1001.3 hPa | - | 1.79 m/s, 270° | - | - |
| 1787921732 | 30° C | 78% | 1000.7 hPa | - | 0 m/s | - | - |
| 1787920834 | 29.44° C | 80% | 1000.3 hPa | - | 0.45 m/s, 225° | - | - |
| 1787919933 | 29.44° C | 80% | 1000 hPa | - | 1.34 m/s, 270° | - | - |
| 1787918132 | 30° C | 79% | 999.9 hPa | - | 1.79 m/s, 270° | - | - |
| 1787917233 | 30° C | 80% | 999.9 hPa | - | 2.24 m/s, 270° | - | - |
| 1787916332 | 30° C | 79% | 999.8 hPa | - | 1.34 m/s, 270° | - | - |
| 1787915434 | 30° C | 78% | 999.8 hPa | - | 2.24 m/s, 270° | - | - |
| 1787914532 | 30° C | 79% | 999.7 hPa | - | 2.24 m/s, 270° | - | - |
| 1787913631 | 30° C | 79% | 999.7 hPa | - | 3.13 m/s, 225° | - | - |
| 1787912733 | 30° C | 77% | 999.8 hPa | - | 2.24 m/s, 270° | - | - |
| 1787911834 | 30° C | 77% | 999.6 hPa | - | 2.68 m/s, 225° | - | - |
| 1787910931 | 30.56° C | 73% | 999.3 hPa | - | 4.02 m/s, 270° | - | - |
| 1787910034 | 30.56° C | 73% | 999.1 hPa | - | 2.68 m/s, 270° | - | - |
| 1787909133 | 31.67° C | 71% | 999 hPa | - | 2.68 m/s, 270° | - | - |
| 1787908231 | 32.22° C | 71% | 998.9 hPa | - | 2.24 m/s, 270° | - | - |
* Rain since midnight (hover to see other rain measurements)
** Current wind speed in m/s (hover to see current wind gust speed)